When you browse on this site, cookies collect data to enhance your experience and personalize the content and advertising you see.
Visit our Privacy Policy to learn more. By continuing to use the site, you agree to this use of cookies and data.
  • în România
  • Lista ţărilor
  • Pe 7 zile
  • Temperatura apei
  • Meteo pe hartă
  • Widget-uri
  • user-avatar
    Intrare

    Meteo pe oră la Mtvara

    Astăzi, 3 Aprilie, Vineri

    Timp Temperatura Precipitaţii Vânt Presiune Umiditate
    00:00 +25°C° 0 mm 3 m/s 758 mmHg 94%
    01:00 +24°C° 0 mm 3 m/s 758 mmHg 92%
    02:00 +22°C° 0 mm 3 m/s 757 mmHg 90%
    03:00 +22°C° 0 mm 4 m/s 757 mmHg 89%
    04:00 +22°C° 0 mm 4 m/s 757 mmHg 88%
    05:00 +22°C° 0 mm 4 m/s 757 mmHg 88%
    06:00 +22°C° 0 mm 4 m/s 758 mmHg 88%
    07:00 +23°C° 0 mm 4 m/s 758 mmHg 83%
    08:00 +26°C° 0 mm 4 m/s 758 mmHg 78%
    09:00 +28°C° 0 mm 4 m/s 759 mmHg 73%
    10:00 +30°C° 0 mm 4 m/s 759 mmHg 67%
    11:00 +32°C° 0 mm 4 m/s 758 mmHg 61%
    12:00 +33°C° 0 mm 3 m/s 758 mmHg 54%
    13:00 +34°C° 0 mm 3 m/s 758 mmHg 55%
    14:00 +34°C° 0 mm 3 m/s 757 mmHg 56%
    15:00 +34°C° 0 mm 2 m/s 757 mmHg 56%
    16:00 +32°C° 0 mm 2 m/s 757 mmHg 64%
    17:00 +31°C° 0 mm 2 m/s 757 mmHg 72%
    18:00 +29°C° 0 mm 2 m/s 757 mmHg 79%
    19:00 +28°C° 0.1 mm 2 m/s 757 mmHg 83%
    20:00 +27°C° 0.1 mm 2 m/s 758 mmHg 86%
    21:00 +26°C° 0.1 mm 2 m/s 758 mmHg 90%
    22:00 +26°C° 0 mm 2 m/s 758 mmHg 90%
    23:00 +25°C° 0 mm 2 m/s 758 mmHg 91%

    Mâine, 4 Aprilie, Sâmbătă

    Timp Temperatura Precipitaţii Vânt Presiune Umiditate
    00:00 +25°C° 0 mm 2 m/s 758 mmHg 92%
    01:00 +25°C° 0 mm 2 m/s 758 mmHg 93%
    02:00 +25°C° 0 mm 2 m/s 758 mmHg 94%
    03:00 +24°C° 0 mm 3 m/s 757 mmHg 95%
    04:00 +24°C° 0 mm 3 m/s 757 mmHg 95%
    05:00 +24°C° 0 mm 3 m/s 758 mmHg 94%
    06:00 +23°C° 0 mm 4 m/s 758 mmHg 94%
    07:00 +26°C° 0 mm 4 m/s 758 mmHg 88%
    08:00 +27°C° 0 mm 4 m/s 759 mmHg 82%
    09:00 +29°C° 0 mm 4 m/s 760 mmHg 76%
    10:00 +30°C° 0 mm 4 m/s 759 mmHg 71%
    11:00 +33°C° 0 mm 3 m/s 759 mmHg 65%
    12:00 +34°C° 0 mm 3 m/s 758 mmHg 59%
    13:00 +34°C° 0 mm 3 m/s 758 mmHg 59%
    14:00 +34°C° 0 mm 3 m/s 757 mmHg 60%
    15:00 +35°C° 0 mm 3 m/s 757 mmHg 60%
    16:00 +33°C° 0.7 mm 3 m/s 757 mmHg 70%
    17:00 +30°C° 0.7 mm 3 m/s 757 mmHg 80%
    18:00 +28°C° 0.7 mm 3 m/s 757 mmHg 89%
    19:00 +28°C° 0.7 mm 3 m/s 758 mmHg 91%
    20:00 +27°C° 0.7 mm 3 m/s 758 mmHg 93%
    21:00 +26°C° 0.7 mm 3 m/s 759 mmHg 95%
    22:00 +26°C° 0.1 mm 3 m/s 759 mmHg 95%
    23:00 +25°C° 0.1 mm 3 m/s 759 mmHg 96%

    Poimâine, 5 Aprilie, Duminică

    Timp Temperatura Precipitaţii Vânt Presiune Umiditate
    00:00 +25°C° 0.1 mm 3 m/s 759 mmHg 96%
    01:00 +25°C° 0 mm 3 m/s 759 mmHg 96%
    02:00 +25°C° 0 mm 3 m/s 758 mmHg 97%
    03:00 +25°C° 0 mm 3 m/s 758 mmHg 97%
    04:00 +25°C° 0.1 mm 3 m/s 758 mmHg 97%
    05:00 +24°C° 0.1 mm 3 m/s 758 mmHg 97%
    06:00 +24°C° 0.1 mm 3 m/s 759 mmHg 98%
    07:00 +26°C° 0 mm 3 m/s 759 mmHg 94%
    08:00 +27°C° 0 mm 3 m/s 760 mmHg 90%
    09:00 +29°C° 0 mm 3 m/s 760 mmHg 86%
    10:00 +30°C° 0 mm 2 m/s 760 mmHg 78%
    11:00 +32°C° 0 mm 2 m/s 759 mmHg 71%
    12:00 +34°C° 0 mm 2 m/s 759 mmHg 64%
    13:00 +34°C° 0.3 mm 2 m/s 758 mmHg 68%
    14:00 +32°C° 0.3 mm 2 m/s 758 mmHg 73%
    15:00 +33°C° 0.3 mm 3 m/s 757 mmHg 78%
    16:00 +31°C° 0.3 mm 3 m/s 757 mmHg 82%
    17:00 +30°C° 0.3 mm 3 m/s 758 mmHg 86%
    18:00 +28°C° 0.3 mm 3 m/s 758 mmHg 90%
    19:00 +28°C° 0 mm 3 m/s 758 mmHg 92%
    20:00 +27°C° 0 mm 3 m/s 759 mmHg 93%
    21:00 +26°C° 0 mm 3 m/s 759 mmHg 95%
    22:00 +26°C° 0.2 mm 2 m/s 759 mmHg 95%
    23:00 +26°C° 0.2 mm 2 m/s 759 mmHg 96%

    6 Aprilie, Luni

    Timp Temperatura Precipitaţii Vânt Presiune Umiditate
    00:00 +25°C° 0.2 mm 2 m/s 759 mmHg 96%
    01:00 +25°C° 0.1 mm 2 m/s 759 mmHg 96%
    02:00 +25°C° 0.1 mm 2 m/s 758 mmHg 97%
    03:00 +25°C° 0.1 mm 2 m/s 758 mmHg 97%
    04:00 +25°C° 0.1 mm 2 m/s 758 mmHg 97%
    05:00 +25°C° 0.1 mm 2 m/s 758 mmHg 97%
    06:00 +25°C° 0.1 mm 2 m/s 758 mmHg 97%
    07:00 +27°C° 0.1 mm 2 m/s 759 mmHg 92%
    08:00 +28°C° 0.1 mm 1 m/s 760 mmHg 86%
    09:00 +30°C° 0.1 mm 1 m/s 760 mmHg 81%
    10:00 +32°C° 0.1 mm 1 m/s 760 mmHg 74%
    11:00 +33°C° 0.1 mm 1 m/s 759 mmHg 67%
    12:00 +34°C° 0.1 mm 1 m/s 759 mmHg 60%
    13:00 +34°C° 0.3 mm 2 m/s 758 mmHg 63%
    14:00 +34°C° 0.3 mm 2 m/s 757 mmHg 66%
    15:00 +32°C° 0.3 mm 2 m/s 757 mmHg 69%
    16:00 +31°C° 0.1 mm 2 m/s 757 mmHg 74%
    17:00 +30°C° 0.1 mm 2 m/s 757 mmHg 78%
    18:00 +29°C° 0.1 mm 2 m/s 757 mmHg 82%
    19:00 +28°C° 0 mm 2 m/s 758 mmHg 84%
    20:00 +27°C° 0 mm 2 m/s 758 mmHg 86%
    21:00 +26°C° 0 mm 2 m/s 759 mmHg 88%
    22:00 +26°C° 0 mm 2 m/s 759 mmHg 89%
    23:00 +26°C° 0 mm 2 m/s 759 mmHg 90%

    7 Aprilie, Marţi

    Timp Temperatura Precipitaţii Vânt Presiune Umiditate
    00:00 +26°C° 0 mm 2 m/s 759 mmHg 91%
    01:00 +25°C° 0 mm 2 m/s 758 mmHg 92%
    02:00 +25°C° 0 mm 2 m/s 758 mmHg 92%
    03:00 +25°C° 0 mm 2 m/s 758 mmHg 93%
    04:00 +25°C° 0 mm 2 m/s 758 mmHg 94%
    05:00 +25°C° 0 mm 2 m/s 758 mmHg 94%
    06:00 +25°C° 0 mm 1 m/s 758 mmHg 95%
    07:00 +27°C° 0 mm 1 m/s 759 mmHg 90%
    08:00 +29°C° 0 mm 1 m/s 759 mmHg 85%
    09:00 +30°C° 0 mm 1 m/s 760 mmHg 79%
    10:00 +31°C° 0.2 mm 2 m/s 760 mmHg 73%
    11:00 +34°C° 0.2 mm 2 m/s 759 mmHg 67%
    12:00 +35°C° 0.2 mm 2 m/s 759 mmHg 61%
    13:00 +34°C° 0.8 mm 3 m/s 758 mmHg 68%
    14:00 +33°C° 0.8 mm 3 m/s 758 mmHg 74%
    15:00 +31°C° 0.8 mm 3 m/s 757 mmHg 81%
    16:00 +30°C° 0.2 mm 2 m/s 757 mmHg 83%
    17:00 +30°C° 0.2 mm 2 m/s 757 mmHg 84%
    18:00 +29°C° 0.2 mm 2 m/s 757 mmHg 86%
    19:00 +28°C° 0.4 mm 2 m/s 758 mmHg 88%
    20:00 +27°C° 0.4 mm 2 m/s 758 mmHg 89%
    21:00 +27°C° 0.4 mm 2 m/s 759 mmHg 91%
    22:00 +27°C° 0.2 mm 2 m/s 759 mmHg 92%
    23:00 +26°C° 0.2 mm 2 m/s 759 mmHg 93%

    8 Aprilie, Miercuri

    Timp Temperatura Precipitaţii Vânt Presiune Umiditate
    00:00 +26°C° 0.2 mm 2 m/s 759 mmHg 94%
    01:00 +26°C° 0.8 mm 2 m/s 758 mmHg 94%
    02:00 +26°C° 0.8 mm 1 m/s 758 mmHg 95%
    03:00 +26°C° 0.8 mm 1 m/s 758 mmHg 96%
    04:00 +26°C° 0.6 mm 1 m/s 758 mmHg 96%
    05:00 +26°C° 0.6 mm 2 m/s 758 mmHg 96%
    06:00 +26°C° 0.6 mm 2 m/s 759 mmHg 96%
    07:00 +27°C° 0.5 mm 2 m/s 759 mmHg 94%
    08:00 +28°C° 0.5 mm 2 m/s 760 mmHg 91%
    09:00 +30°C° 0.5 mm 3 m/s 760 mmHg 89%
    10:00 +30°C° 1.3 mm 3 m/s 760 mmHg 88%
    11:00 +30°C° 1.3 mm 3 m/s 760 mmHg 87%
    12:00 +30°C° 1.3 mm 4 m/s 759 mmHg 87%
    13:00 +30°C° 1.1 mm 3 m/s 759 mmHg 87%
    14:00 +30°C° 1.1 mm 3 m/s 758 mmHg 88%
    15:00 +30°C° 1.1 mm 3 m/s 758 mmHg 89%
    16:00 +29°C° 0.3 mm 3 m/s 758 mmHg 91%
    17:00 +29°C° 0.3 mm 3 m/s 758 mmHg 92%
    18:00 +28°C° 0.3 mm 2 m/s 758 mmHg 93%
    19:00 +28°C° 0.4 mm 2 m/s 758 mmHg 94%
    20:00 +27°C° 0.4 mm 3 m/s 759 mmHg 95%
    21:00 +27°C° 0.4 mm 3 m/s 759 mmHg 96%
    22:00 +26°C° 0.6 mm 3 m/s 759 mmHg 96%
    23:00 +26°C° 0.6 mm 3 m/s 759 mmHg 97%
    Arată mai mult